QPF
0.01 0.01 0.01 0.01 0.01 0.01 0.01 0.01 0.01 0.01 0.01 0.01 0.01 0.01 0.01 0.01 0.01 0.01 0.02 0.03 0.04 0.05 0.06 0.06 0.05 0.04 0.02 0.01 0.01 0.00 0.01 0.01 0.00 0.00 0.00 0.01 0.02 0.02 0.04 0.05 0.05 0.08 0.04 0.04
0.01 0.01 0.01 0.01 0.01 0.01 0.01 0.02 0.01 0.01 0.01 0.01 0.01 0.01 0.01 0.00 0.00 0.01 0.03 0.04 0.05 0.06 0.06 0.05 0.05 0.04 0.02 0.01 0.01 0.01 0.01 0.00 0.00 0.01 0.01 0.01 0.02 0.03 0.05 0.05 0.04 0.03 0.02 0.03
0.02 0.01 0.01 0.01 0.01 0.02 0.02 0.03 0.03 0.01 0.01 0.01 0.01 0.02 0.02 0.01 0.01 0.01 0.02 0.03 0.04 0.05 0.05 0.05 0.04 0.03 0.02 0.02 0.01 0.00 0.00 0.01 0.01 0.01 0.01 0.02 0.02 0.02 0.02 0.03 0.03 0.04 0.04 0.04
0.02 0.01 0.01 0.00 0.00 0.01 0.01 0.02 0.02 0.02 0.01 0.02 0.01 0.02 0.03 0.01 0.01 0.02 0.03 0.02 0.03 0.03 0.05 0.07 0.05 0.03 0.03 0.02 0.01 0.01 0.01 0.01 0.02 0.02 0.03 0.05 0.04 0.02 0.02 0.02 0.02 0.03 0.04 0.03
0.02 0.02 0.01 0.01 0.00 0.00 0.01 0.01 0.01 0.02 0.04 0.03 0.02 0.02 0.02 0.01 0.03 0.05 0.04 0.03 0.03 0.03 0.03 0.04 0.04 0.05 0.05 0.04 0.02 0.02 0.01 0.01 0.02 0.03 0.03 0.04 0.03 0.02 0.02 0.02 0.02 0.02 0.02 0.02
0.02 0.02 0.01 0.01 0.00 0.00 0.01 0.01 0.01 0.02 0.04 0.05 0.04 0.03 0.03 0.02 0.03 0.06 0.06 0.04 0.03 0.03 0.03 0.03 0.05 0.06 0.04 0.02 0.02 0.02 0.01 0.01 0.02 0.02 0.03 0.04 0.04 0.03 0.02 0.02 0.02 0.02 0.02 0.03
0.01 0.02 0.01 0.01 0.00 0.00 0.01 0.01 0.03 0.03 0.04 0.05 0.05 0.06 0.05 0.06 0.04 0.04 0.04 0.04 0.03 0.02 0.02 0.02 0.02 0.02 0.01 0.01 0.01 0.01 0.01 0.01 0.02 0.03 0.04 0.04 0.04 0.03 0.02 0.02 0.03 0.02 0.02 0.02
0.02 0.02 0.01 0.01 0.01 0.01 0.01 0.02 0.03 0.03 0.04 0.04 0.05 0.07 0.06 0.06 0.06 0.03 0.04 0.04 0.03 0.02 0.01 0.01 0.01 0.01 0.01 0.01 0.00 0.01 0.01 0.02 0.03 0.04 0.05 0.05 0.04 0.04 0.03 0.02 0.03 0.02 0.01 0.02
0.01 0.01 0.02 0.02 0.01 0.01 0.01 0.01 0.02 0.03 0.04 0.05 0.05 0.05 0.06 0.07 0.05 0.03 0.03 0.03 0.02 0.01 0.01 0.00 0.00 0.01 0.00 0.00 0.01 0.01 0.01 0.02 0.02 0.03 0.04 0.05 0.04 0.04 0.03 0.02 0.02 0.02 0.01 0.02
0.00 0.01 0.01 0.03 0.02 0.01 0.01 0.01 0.02 0.03 0.05 0.05 0.05 0.06 0.07 0.06 0.04 0.03 0.05 0.04 0.02 0.02 0.01 0.00 0.00 0.00 0.00 0.00 0.01 0.01 0.01 0.01 0.01 0.02 0.02 0.03 0.03 0.03 0.03 0.02 0.03 0.03 0.03 0.03
0.00 0.00 0.01 0.03 0.02 0.01 0.01 0.01 0.02 0.02 0.02 0.03 0.05 0.08 0.06 0.04 0.06 0.05 0.04 0.03 0.02 0.02 0.01 0.01 0.00 0.00 0.00 0.00 0.00 0.00 0.00 0.01 0.01 0.01 0.01 0.02 0.02 0.02 0.03 0.03 0.04 0.04 0.03 0.02
0.00 0.01 0.01 0.02 0.01 0.01 0.01 0.01 0.02 0.02 0.02 0.03 0.05 0.06 0.05 0.07 0.11 0.10 0.06 0.03 0.02 0.02 0.01 0.01 0.01 0.01 0.00 0.01 0.01 0.00 0.00 0.00 0.01 0.01 0.01 0.01 0.02 0.02 0.02 0.04 0.04 0.03 0.03 0.03
0.00 0.01 0.01 0.02 0.01 0.01 0.01 0.01 0.01 0.02 0.02 0.02 0.03 0.04 0.03 0.08 0.08 0.07 0.06 0.04 0.03 0.02 0.02 0.01 0.01 0.01 0.01 0.00 0.00 0.00 0.00 0.00 0.00 0.01 0.01 0.03 0.03 0.04 0.04 0.05 0.05 0.05 0.05 0.04
0.00 0.00 0.01 0.02 0.01 0.01 0.02 0.01 0.01 0.01 0.02 0.02 0.03 0.03 0.04 0.07 0.05 0.04 0.03 0.03 0.02 0.02 0.02 0.01 0.02 0.02 0.03 0.01 0.01 0.01 0.00 0.00 0.01 0.01 0.02 0.03 0.05 0.05 0.05 0.06 0.06 0.07 0.08 0.08
0.00 0.00 0.00 0.02 0.02 0.02 0.01 0.01 0.01 0.01 0.02 0.02 0.03 0.04 0.05 0.08 0.07 0.05 0.03 0.02 0.02 0.02 0.01 0.01 0.01 0.03 0.04 0.05 0.03 0.01 0.01 0.01 0.02 0.03 0.03 0.03 0.03 0.03 0.03 0.03 0.05 0.07 0.09 0.09
0.02 0.01 0.00 0.01 0.01 0.02 0.02 0.01 0.01 0.01 0.01 0.02 0.03 0.06 0.07 0.11 0.10 0.05 0.03 0.02 0.02 0.02 0.01 0.01 0.01 0.03 0.04 0.05 0.06 0.04 0.03 0.03 0.04 0.05 0.04 0.04 0.03 0.02 0.01 0.02 0.02 0.04 0.05 0.07
0.01 0.01 0.01 0.01 0.00 0.01 0.01 0.01 0.01 0.01 0.01 0.02 0.04 0.05 0.05 0.06 0.06 0.04 0.03 0.02 0.01 0.03 0.03 0.02 0.03 0.03 0.04 0.05 0.06 0.06 0.07 0.07 0.06 0.04 0.03 0.03 0.02 0.02 0.02 0.02 0.02 0.02 0.02 0.03
0.00 0.00 0.00 0.00 0.00 0.01 0.01 0.01 0.01 0.01 0.01 0.02 0.03 0.04 0.06 0.04 0.03 0.03 0.03 0.02 0.01 0.01 0.04 0.05 0.06 0.05 0.05 0.07 0.07 0.06 0.06 0.05 0.04 0.04 0.03 0.03 0.03 0.03 0.03 0.03 0.02 0.02 0.01 0.01
0.00 0.00 0.00 0.00 0.00 0.01 0.01 0.01 0.01 0.02 0.03 0.04 0.03 0.03 0.04 0.05 0.04 0.03 0.02 0.02 0.02 0.04 0.07 0.07 0.07 0.05 0.05 0.08 0.10 0.09 0.06 0.06 0.05 0.05 0.04 0.05 0.06 0.07 0.07 0.05 0.04 0.04 0.02 0.01
0.00 0.00 0.00 0.00 0.00 0.01 0.02 0.01 0.01 0.03 0.07 0.05 0.05 0.06 0.07 0.06 0.04 0.03 0.03 0.04 0.04 0.04 0.04 0.05 0.12 0.11 0.06 0.04 0.05 0.05 0.06 0.07 0.07 0.06 0.07 0.07 0.05 0.04 0.04 0.05 0.04 0.04 0.03 0.02
0.01 0.01 0.01 0.01 0.01 0.03 0.02 0.01 0.01 0.04 0.09 0.05 0.05 0.05 0.09 0.10 0.05 0.04 0.04 0.06 0.07 0.06 0.04 0.04 0.05 0.08 0.06 0.06 0.05 0.05 0.04 0.04 0.08 0.08 0.07 0.06 0.05 0.03 0.03 0.04 0.03 0.03 0.03 0.03
0.01 0.02 0.02 0.02 0.04 0.08 0.04 0.02 0.02 0.05 0.06 0.05 0.05 0.05 0.05 0.07 0.06 0.05 0.05 0.06 0.07 0.11 0.07 0.05 0.04 0.04 0.06 0.09 0.10 0.08 0.06 0.03 0.04 0.04 0.05 0.05 0.05 0.04 0.04 0.04 0.04 0.04 0.03 0.03
0.02 0.02 0.03 0.04 0.06 0.07 0.05 0.03 0.04 0.06 0.07 0.06 0.06 0.07 0.05 0.05 0.05 0.05 0.04 0.04 0.04 0.04 0.07 0.05 0.04 0.05 0.13 0.16 0.14 0.10 0.06 0.04 0.04 0.05 0.05 0.06 0.08 0.07 0.07 0.09 0.10 0.09 0.07 0.05
0.03 0.02 0.03 0.05 0.06 0.06 0.05 0.04 0.07 0.09 0.08 0.08 0.07 0.07 0.06 0.05 0.05 0.05 0.03 0.03 0.02 0.03 0.03 0.06 0.06 0.05 0.17 0.24 0.17 0.12 0.08 0.07 0.06 0.06 0.06 0.06 0.07 0.09 0.09 0.10 0.10 0.10 0.11 0.11
0.04 0.03 0.03 0.05 0.07 0.05 0.04 0.04 0.06 0.05 0.05 0.06 0.07 0.06 0.05 0.04 0.03 0.03 0.03 0.03 0.03 0.05 0.05 0.04 0.07 0.04 0.06 0.14 0.17 0.12 0.10 0.11 0.10 0.10 0.09 0.07 0.06 0.06 0.06 0.06 0.05 0.06 0.08 0.09
0.02 0.04 0.05 0.05 0.05 0.07 0.07 0.08 0.06 0.03 0.03 0.05 0.05 0.03 0.03 0.03 0.04 0.03 0.03 0.03 0.03 0.03 0.03 0.03 0.03 0.03 0.04 0.04 0.06 0.07 0.05 0.05 0.06 0.06 0.06 0.05 0.04 0.03 0.06 0.09 0.08 0.07 0.07 0.08
MSLP
1009.12 1009.76 1010.17 1010.37 1010.41 1010.38 1010.37 1010.42 1010.55 1010.73 1010.94 1011.11 1011.19 1011.17 1011.06 1010.88 1010.69 1010.55 1010.50 1010.55 1010.71 1010.94 1011.19 1011.41 1011.59 1011.70 1011.75 1011.79 1011.85 1011.96 1012.16 1012.45 1012.79 1013.16 1013.51 1013.79 1013.98 1014.06 1014.06 1013.99 1013.90 1013.82 1013.78 1013.80
1009.18 1009.58 1009.74 1009.75 1009.69 1009.66 1009.75 1009.98 1010.34 1010.76 1011.17 1011.48 1011.62 1011.58 1011.37 1011.06 1010.72 1010.45 1010.30 1010.31 1010.47 1010.73 1011.03 1011.31 1011.52 1011.64 1011.69 1011.70 1011.73 1011.82 1012.01 1012.30 1012.68 1013.08 1013.46 1013.77 1013.96 1014.02 1013.97 1013.85 1013.71 1013.61 1013.57 1013.61
1008.95 1009.08 1008.99 1008.82 1008.69 1008.70 1008.93 1009.39 1010.03 1010.73 1011.37 1011.83 1012.03 1011.96 1011.64 1011.16 1010.65 1010.22 1009.95 1009.89 1010.03 1010.32 1010.68 1011.02 1011.29 1011.46 1011.52 1011.53 1011.54 1011.62 1011.81 1012.11 1012.51 1012.94 1013.36 1013.68 1013.88 1013.93 1013.86 1013.72 1013.56 1013.44 1013.41 1013.48
1008.54 1008.39 1008.09 1007.78 1007.61 1007.71 1008.13 1008.86 1009.79 1010.77 1011.63 1012.23 1012.48 1012.35 1011.89 1011.22 1010.49 1009.86 1009.43 1009.27 1009.37 1009.67 1010.08 1010.50 1010.85 1011.07 1011.18 1011.22 1011.24 1011.32 1011.50 1011.82 1012.23 1012.69 1013.14 1013.49 1013.71 1013.78 1013.71 1013.57 1013.40 1013.29 1013.27 1013.38
1008.09 1007.71 1007.23 1006.84 1006.70 1006.92 1007.55 1008.55 1009.76 1011.00 1012.05 1012.75 1013.00 1012.77 1012.13 1011.24 1010.27 1009.40 1008.79 1008.49 1008.52 1008.82 1009.27 1009.76 1010.18 1010.49 1010.66 1010.74 1010.79 1010.88 1011.07 1011.40 1011.83 1012.31 1012.79 1013.18 1013.44 1013.54 1013.50 1013.38 1013.24 1013.14 1013.15 1013.29
1007.72 1007.17 1006.59 1006.18 1006.11 1006.48 1007.33 1008.57 1010.02 1011.45 1012.63 1013.38 1013.57 1013.20 1012.37 1011.22 1009.99 1008.88 1008.06 1007.61 1007.56 1007.82 1008.30 1008.85 1009.35 1009.73 1009.98 1010.11 1010.20 1010.31 1010.52 1010.85 1011.30 1011.81 1012.32 1012.76 1013.07 1013.22 1013.23 1013.15 1013.05 1012.99 1013.03 1013.19
1007.49 1006.86 1006.25 1005.88 1005.91 1006.45 1007.48 1008.91 1010.52 1012.07 1013.30 1014.02 1014.11 1013.58 1012.52 1011.13 1009.65 1008.32 1007.31 1006.72 1006.57 1006.80 1007.28 1007.87 1008.44 1008.89 1009.20 1009.39 1009.51 1009.65 1009.87 1010.21 1010.67 1011.21 1011.76 1012.25 1012.62 1012.84 1012.92 1012.91 1012.85 1012.84 1012.91 1013.10
1007.39 1006.75 1006.20 1005.92 1006.07 1006.75 1007.91 1009.45 1011.14 1012.71 1013.91 1014.54 1014.49 1013.79 1012.53 1010.94 1009.27 1007.75 1006.59 1005.89 1005.66 1005.85 1006.33 1006.95 1007.55 1008.05 1008.41 1008.64 1008.79 1008.94 1009.17 1009.52 1009.99 1010.55 1011.13 1011.68 1012.12 1012.42 1012.58 1012.64 1012.66 1012.69 1012.80 1013.02
1007.32 1006.77 1006.32 1006.17 1006.46 1007.23 1008.47 1010.03 1011.68 1013.18 1014.26 1014.76 1014.57 1013.71 1012.32 1010.60 1008.81 1007.20 1005.97 1005.20 1004.94 1005.10 1005.57 1006.18 1006.80 1007.32 1007.69 1007.93 1008.10 1008.25 1008.47 1008.82 1009.29 1009.86 1010.48 1011.07 1011.58 1011.97 1012.22 1012.37 1012.46 1012.55 1012.70 1012.94
1007.17 1006.77 1006.49 1006.50 1006.89 1007.73 1008.96 1010.45 1011.98 1013.32 1014.23 1014.57 1014.24 1013.29 1011.84 1010.10 1008.31 1006.72 1005.49 1004.74 1004.47 1004.62 1005.07 1005.66 1006.26 1006.76 1007.12 1007.34 1007.48 1007.62 1007.82 1008.14 1008.60 1009.17 1009.81 1010.45 1011.02 1011.49 1011.83 1012.07 1012.24 1012.40 1012.59 1012.87
1006.87 1006.68 1006.60 1006.76 1007.25 1008.09 1009.24 1010.58 1011.92 1013.04 1013.75 1013.93 1013.51 1012.53 1011.12 1009.47 1007.81 1006.34 1005.22 1004.54 1004.32 1004.47 1004.89 1005.44 1005.98 1006.42 1006.72 1006.89 1006.98 1007.07 1007.23 1007.51 1007.94 1008.49 1009.13 1009.79 1010.41 1010.95 1011.38 1011.71 1011.97 1012.20 1012.45 1012.76
1006.41 1006.48 1006.62 1006.93 1007.48 1008.28 1009.30 1010.43 1011.52 1012.39 1012.90 1012.94 1012.48 1011.55 1010.28 1008.82 1007.38 1006.13 1005.19 1004.65 1004.49 1004.65 1005.03 1005.50 1005.95 1006.29 1006.50 1006.58 1006.60 1006.62 1006.72 1006.94 1007.31 1007.83 1008.44 1009.10 1009.74 1010.33 1010.83 1011.25 1011.60 1011.91 1012.24 1012.60
1005.91 1006.24 1006.59 1007.04 1007.62 1008.35 1009.20 1010.09 1010.90 1011.53 1011.84 1011.79 1011.33 1010.52 1009.46 1008.28 1007.13 1006.15 1005.44 1005.05 1004.97 1005.13 1005.45 1005.81 1006.13 1006.35 1006.43 1006.42 1006.34 1006.27 1006.29 1006.44 1006.73 1007.18 1007.74 1008.36 1009.01 1009.62 1010.18 1010.67 1011.10 1011.51 1011.92 1012.35
1005.51 1006.09 1006.64 1007.19 1007.78 1008.41 1009.06 1009.70 1010.25 1010.64 1010.80 1010.68 1010.28 1009.63 1008.82 1007.95 1007.12 1006.43 1005.96 1005.72 1005.69 1005.84 1006.07 1006.30 1006.48 1006.54 1006.50 1006.36 1006.19 1006.03 1005.96 1006.01 1006.22 1006.57 1007.05 1007.61 1008.22 1008.82 1009.41 1009.96 1010.47 1010.97 1011.47 1011.99
1005.38 1006.17 1006.87 1007.50 1008.06 1008.57 1009.03 1009.43 1009.74 1009.93 1009.95 1009.80 1009.49 1009.02 1008.48 1007.90 1007.38 1006.97 1006.69 1006.57 1006.58 1006.67 1006.80 1006.89 1006.91 1006.83 1006.65 1006.41 1006.14 1005.90 1005.74 1005.71 1005.81 1006.05 1006.42 1006.88 1007.41 1007.98 1008.56 1009.14 1009.72 1010.30 1010.90 1011.51
1005.61 1006.56 1007.37 1008.02 1008.52 1008.90 1009.18 1009.37 1009.47 1009.48 1009.42 1009.27 1009.04 1008.76 1008.45 1008.14 1007.88 1007.68 1007.56 1007.51 1007.51 1007.53 1007.54 1007.49 1007.36 1007.15 1006.86 1006.53 1006.19 1005.89 1005.66 1005.53 1005.53 1005.65 1005.88 1006.22 1006.64 1007.14 1007.68 1008.27 1008.89 1009.54 1010.22 1010.93
1006.22 1007.26 1008.09 1008.72 1009.14 1009.38 1009.49 1009.49 1009.42 1009.32 1009.19 1009.05 1008.91 1008.79 1008.67 1008.58 1008.51 1008.47 1008.44 1008.41 1008.37 1008.30 1008.18 1008.00 1007.76 1007.45 1007.09 1006.72 1006.34 1006.00 1005.72 1005.52 1005.41 1005.40 1005.50 1005.69 1005.98 1006.37 1006.84 1007.40 1008.04 1008.74 1009.49 1010.27
1007.11 1008.14 1008.93 1009.48 1009.79 1009.90 1009.85 1009.71 1009.52 1009.33 1009.16 1009.05 1009.00 1008.99 1009.02 1009.07 1009.13 1009.16 1009.17 1009.13 1009.03 1008.87 1008.65 1008.38 1008.05 1007.70 1007.32 1006.94 1006.57 1006.23 1005.93 1005.67 1005.47 1005.34 1005.28 1005.32 1005.46 1005.72 1006.10 1006.60 1007.22 1007.94 1008.73 1009.58
1008.09 1009.02 1009.71 1010.13 1010.31 1010.29 1010.11 1009.86 1009.59 1009.35 1009.18 1009.09 1009.10 1009.18 1009.31 1009.45 1009.57 1009.64 1009.64 1009.57 1009.41 1009.19 1008.90 1008.57 1008.22 1007.87 1007.52 1007.18 1006.85 1006.54 1006.23 1005.94 1005.67 1005.42 1005.23 1005.12 1005.11 1005.23 1005.50 1005.92 1006.50 1007.20 1008.01 1008.89
1008.93 1009.71 1010.23 1010.50 1010.54 1010.39 1010.12 1009.79 1009.48 1009.23 1009.07 1009.03 1009.09 1009.22 1009.41 1009.59 1009.74 1009.81 1009.80 1009.69 1009.49 1009.23 1008.92 1008.59 1008.26 1007.95 1007.67 1007.40 1007.14 1006.87 1006.59 1006.28 1005.95 1005.62 1005.31 1005.06 1004.91 1004.90 1005.05 1005.39 1005.90 1006.57 1007.36 1008.23
1009.47 1010.05 1010.39 1010.49 1010.40 1010.15 1009.81 1009.44 1009.12 1008.89 1008.76 1008.76 1008.86 1009.04 1009.25 1009.45 1009.60 1009.67 1009.64 1009.51 1009.30 1009.03 1008.74 1008.45 1008.18 1007.95 1007.75 1007.57 1007.39 1007.19 1006.93 1006.62 1006.25 1005.85 1005.45 1005.09 1004.82 1004.70 1004.75 1005.00 1005.44 1006.05 1006.80 1007.64
1009.62 1010.00 1010.14 1010.09 1009.88 1009.56 1009.19 1008.83 1008.53 1008.33 1008.26 1008.30 1008.44 1008.64 1008.86 1009.07 1009.21 1009.27 1009.23 1009.10 1008.91 1008.67 1008.43 1008.20 1008.02 1007.88 1007.77 1007.68 1007.57 1007.42 1007.19 1006.88 1006.50 1006.05 1005.59 1005.16 1004.81 1004.60 1004.58 1004.74 1005.11 1005.66 1006.35 1007.14
1009.42 1009.59 1009.58 1009.40 1009.11 1008.75 1008.38 1008.05 1007.80 1007.66 1007.63 1007.72 1007.89 1008.10 1008.33 1008.53 1008.66 1008.72 1008.68 1008.58 1008.42 1008.24 1008.06 1007.92 1007.82 1007.76 1007.73 1007.71 1007.65 1007.54 1007.33 1007.03 1006.63 1006.17 1005.68 1005.22 1004.83 1004.58 1004.50 1004.61 1004.92 1005.40 1006.02 1006.74
1008.96 1008.97 1008.82 1008.56 1008.23 1007.87 1007.53 1007.26 1007.08 1007.00 1007.02 1007.14 1007.33 1007.55 1007.77 1007.95 1008.08 1008.13 1008.12 1008.04 1007.93 1007.81 1007.71 1007.64 1007.61 1007.61 1007.63 1007.65 1007.62 1007.52 1007.32 1007.03 1006.64 1006.19 1005.71 1005.25 1004.87 1004.61 1004.51 1004.59 1004.84 1005.26 1005.81 1006.45
1008.39 1008.28 1008.05 1007.75 1007.42 1007.09 1006.81 1006.60 1006.49 1006.47 1006.54 1006.68 1006.87 1007.08 1007.28 1007.44 1007.55 1007.61 1007.61 1007.57 1007.50 1007.44 1007.39 1007.37 1007.38 1007.42 1007.46 1007.48 1007.45 1007.35 1007.16 1006.88 1006.51 1006.09 1005.65 1005.24 1004.89 1004.66 1004.58 1004.65 1004.87 1005.23 1005.70 1006.26
1007.84 1007.66 1007.40 1007.09 1006.79 1006.52 1006.30 1006.17 1006.12 1006.15 1006.25 1006.39 1006.57 1006.75 1006.91 1007.04 1007.13 1007.17 1007.18 1007.17 1007.14 1007.11 1007.10 1007.11 1007.14 1007.17 1007.20 1007.20 1007.15 1007.04 1006.85 1006.58 1006.25 1005.88 1005.52 1005.18 1004.91 1004.74 1004.69 1004.76 1004.97 1005.28 1005.67 1006.14
Thickness
5834 5816 5805 5813 5821 5819 5817 5812 5809 5821 5840 5830 5822 5820 5827 5834 5832 5829 5827 5826 5825 5826 5829 5830 5828 5826 5822 5818 5815 5812 5809 5807 5805 5801 5797 5793 5790 5790 5789 5789 5787 5785 5784 5781
5813 5807 5826 5835 5834 5828 5820 5810 5811 5823 5839 5831 5820 5819 5829 5835 5834 5834 5830 5828 5827 5826 5826 5826 5825 5824 5821 5817 5815 5812 5809 5807 5806 5803 5800 5797 5793 5790 5789 5788 5787 5785 5783 5782
5804 5821 5840 5834 5826 5819 5816 5813 5814 5815 5828 5831 5818 5808 5818 5828 5835 5836 5835 5834 5833 5830 5826 5825 5823 5822 5820 5818 5816 5814 5810 5808 5806 5804 5800 5796 5792 5789 5786 5784 5783 5784 5782 5781
5814 5833 5836 5829 5825 5824 5809 5830 5831 5825 5809 5796 5806 5778 5804 5817 5823 5829 5830 5830 5830 5832 5830 5827 5824 5821 5820 5819 5817 5814 5811 5808 5806 5804 5800 5794 5788 5784 5784 5784 5783 5782 5781 5780
5811 5829 5827 5823 5832 5833 5825 5840 5833 5825 5806 5794 5798 5782 5791 5812 5811 5820 5827 5831 5832 5833 5831 5828 5826 5824 5822 5820 5817 5813 5810 5807 5806 5803 5800 5794 5789 5787 5785 5784 5781 5780 5779 5779
5820 5838 5837 5835 5844 5846 5841 5831 5822 5807 5791 5771 5787 5781 5782 5803 5814 5821 5827 5832 5834 5834 5832 5829 5827 5825 5821 5819 5816 5812 5808 5804 5804 5802 5799 5794 5789 5786 5783 5780 5778 5777 5776 5776
5805 5823 5838 5845 5830 5835 5829 5797 5771 5766 5756 5761 5787 5783 5788 5819 5831 5831 5831 5833 5836 5835 5830 5827 5824 5821 5819 5816 5814 5810 5805 5802 5801 5799 5797 5794 5790 5786 5782 5779 5776 5774 5772 5772
5780 5788 5823 5836 5828 5817 5817 5798 5765 5752 5748 5759 5781 5779 5800 5830 5839 5840 5840 5838 5836 5832 5829 5826 5825 5822 5819 5817 5813 5809 5804 5800 5799 5797 5794 5792 5789 5785 5782 5779 5776 5773 5771 5770
5779 5786 5826 5839 5843 5831 5812 5799 5797 5771 5763 5756 5767 5785 5806 5827 5828 5831 5831 5830 5829 5829 5828 5826 5824 5821 5819 5816 5812 5808 5803 5800 5798 5795 5793 5789 5787 5784 5781 5778 5776 5772 5770 5768
5798 5787 5809 5830 5837 5832 5825 5812 5785 5766 5748 5743 5759 5770 5778 5800 5810 5820 5821 5820 5822 5825 5824 5822 5821 5820 5819 5816 5813 5808 5804 5800 5797 5794 5791 5788 5784 5782 5779 5776 5772 5770 5767 5765
5802 5783 5791 5806 5806 5805 5811 5804 5786 5765 5760 5745 5740 5760 5805 5807 5813 5814 5818 5819 5819 5819 5820 5818 5817 5817 5817 5814 5810 5805 5801 5797 5794 5791 5788 5785 5782 5779 5776 5772 5769 5767 5764 5762
5802 5779 5770 5789 5813 5824 5814 5803 5786 5765 5758 5754 5745 5763 5816 5816 5817 5817 5817 5817 5817 5818 5818 5816 5815 5814 5811 5808 5805 5802 5799 5795 5792 5789 5785 5781 5778 5775 5771 5768 5766 5764 5761 5759
5801 5773 5755 5763 5782 5802 5802 5802 5794 5779 5762 5750 5744 5765 5812 5813 5811 5814 5813 5813 5813 5813 5813 5812 5810 5808 5805 5803 5802 5799 5796 5792 5789 5785 5780 5776 5773 5770 5766 5764 5761 5759 5757 5754
5808 5773 5760 5754 5764 5782 5786 5793 5795 5777 5756 5752 5757 5770 5790 5800 5802 5804 5806 5809 5809 5808 5807 5805 5802 5800 5799 5798 5797 5795 5792 5789 5784 5780 5775 5771 5768 5765 5763 5761 5758 5755 5752 5749
5797 5773 5776 5780 5789 5791 5788 5789 5792 5783 5773 5763 5769 5773 5786 5796 5800 5801 5802 5803 5802 5801 5800 5798 5797 5795 5793 5790 5789 5788 5786 5784 5780 5775 5771 5767 5764 5762 5759 5756 5753 5750 5747 5745
5783 5772 5774 5774 5787 5786 5781 5787 5791 5788 5785 5780 5779 5778 5795 5799 5799 5796 5796 5797 5794 5795 5795 5794 5793 5791 5788 5786 5783 5781 5780 5778 5776 5770 5765 5763 5759 5756 5754 5751 5748 5744 5741 5738
5770 5763 5755 5751 5770 5770 5757 5774 5781 5782 5785 5783 5772 5780 5791 5789 5788 5788 5789 5791 5790 5790 5790 5789 5787 5785 5783 5782 5781 5776 5773 5771 5769 5765 5761 5757 5753 5750 5748 5746 5742 5738 5735 5732
5765 5755 5742 5740 5748 5733 5757 5786 5788 5782 5782 5786 5784 5784 5786 5785 5786 5787 5788 5786 5784 5785 5786 5784 5781 5778 5777 5776 5773 5771 5768 5764 5761 5758 5755 5752 5749 5745 5742 5739 5735 5732 5729 5726
5769 5754 5737 5727 5727 5738 5760 5777 5782 5773 5765 5781 5779 5780 5781 5783 5779 5774 5782 5783 5782 5782 5781 5780 5777 5775 5771 5769 5766 5762 5757 5755 5752 5750 5748 5746 5744 5740 5735 5731 5729 5727 5724 5720
5760 5753 5735 5725 5722 5721 5745 5774 5787 5774 5751 5774 5777 5775 5775 5773 5754 5757 5774 5777 5777 5776 5774 5772 5770 5767 5763 5761 5759 5753 5748 5746 5744 5743 5742 5740 5738 5735 5731 5728 5725 5723 5719 5716
5733 5730 5724 5718 5716 5725 5753 5771 5776 5743 5742 5766 5770 5769 5767 5762 5759 5763 5767 5768 5768 5767 5765 5764 5760 5756 5754 5753 5750 5743 5740 5739 5739 5738 5736 5734 5732 5730 5727 5723 5721 5718 5714 5710
5717 5713 5710 5709 5706 5715 5753 5758 5748 5744 5756 5758 5760 5762 5761 5760 5758 5758 5758 5758 5758 5755 5755 5753 5749 5746 5745 5744 5741 5735 5732 5734 5732 5730 5728 5727 5725 5724 5722 5717 5714 5711 5707 5703
5715 5716 5712 5712 5712 5730 5744 5746 5749 5751 5749 5750 5751 5754 5754 5751 5749 5748 5748 5748 5747 5746 5745 5744 5740 5737 5735 5734 5733 5728 5727 5727 5725 5722 5720 5719 5718 5717 5714 5710 5706 5703 5699 5695
5713 5719 5712 5709 5717 5727 5734 5739 5742 5744 5744 5746 5747 5747 5746 5742 5740 5738 5738 5738 5737 5736 5735 5734 5731 5728 5727 5727 5725 5724 5722 5721 5718 5714 5712 5710 5709 5707 5705 5702 5700 5696 5692 5690
5703 5705 5700 5699 5709 5717 5724 5729 5731 5734 5737 5738 5739 5739 5737 5734 5731 5729 5728 5727 5726 5725 5724 5723 5720 5718 5719 5719 5718 5717 5716 5713 5709 5706 5704 5702 5700 5698 5695 5693 5692 5690 5689 5687
5697 5696 5692 5691 5704 5705 5710 5721 5726 5725 5725 5727 5727 5727 5727 5725 5722 5721 5719 5718 5718 5717 5715 5712 5711 5710 5710 5710 5709 5708 5708 5706 5701 5698 5696 5693 5691 5689 5687 5684 5682 5683 5683 5683